Starlink 1230

operational
NORAD ID: 45189 Int'l Des: 2020-012 Owner: SPXS Country: US Constellation: starlink
LEOCIRCULARSTARLINK_TYPE

Starlink 1230について

説明を読み込み中...

リアルタイム位置

3D地球を読み込み中...

次回通過

高度履歴

Altitude vs Time

uPlot chart will show altitude changes over time

軌道要素

1 45189U 20012M 26035.33336806 .00060430 00000-0 20385-2 0 9993
2 45189 53.1603 194.6633 0001174 83.1872 48.0497 15.30159241 5795
Epoch: Feb 4, 2026 • Age: 6 hours

現在のステータス

高度 480.8 km
速度 7.63 km/s
衛星直下点 52.25°N, 47.5°W
打ち上げ日 Feb 17, 2020
運用期間 5.9 years
タイプ internet

技術仕様

分類 Payload
質量 260.00 kg
乾燥質量 248.00 kg
総質量 260.00 kg
長さ 0.20 m
直径 2.80 m
スパン 9.00 m
形状 Box + pan
製造者 SPXS
バスタイプ Starlink
フェーズステータス In Orbit
所有者/国 SPXS/US

大規模コンステレーション

Loading constellations...